Time,TemperatureF,DewpointF,PressureIn,WindDirection,WindDirectionDegrees,WindSpeedMPH,WindSpeedGustMPH,Humidity,HourlyPrecipIn,Conditions,Clouds,dailyrainin,SoftwareType,DateUTC
2013-01-30 00:04:00,43.9,43.1,29.97,SSE,163,3.0,8.0,97,0.00,,,0.00,Weather View 32 v70,2013-01-30 08:04:00,
2013-01-30 00:10:00,43.9,43.1,29.97,South,180,3.0,8.0,97,0.00,,,0.00,Weather View 32 v70,2013-01-30 08:10:00,
2013-01-30 00:15:00,43.9,43.1,29.97,South,187,0.0,8.0,97,0.00,,,0.00,Weather View 32 v70,2013-01-30 08:15:00,
2013-01-30 00:24:00,43.9,43.1,29.97,ESE,111,0.0,8.0,97,0.00,,,0.00,Weather View 32 v70,2013-01-30 08:24:00,
2013-01-30 00:29:00,43.9,43.1,29.97,ESE,120,0.0,8.0,97,0.00,,,0.00,Weather View 32 v70,2013-01-30 08:29:00,
2013-01-30 00:35:00,43.9,43.1,29.97,SSW,206,0.0,8.0,97,0.00,,,0.00,Weather View 32 v70,2013-01-30 08:35:00,
2013-01-30 00:40:00,43.9,43.1,29.97,SSE,152,6.0,8.0,97,0.00,,,0.00,Weather View 32 v70,2013-01-30 08:40:00,
2013-01-30 00:50:00,44.1,43.3,29.97,SE,131,6.0,8.0,97,0.00,,,0.00,Weather View 32 v70,2013-01-30 08:50:00,
2013-01-30 00:55:00,44.1,43.3,29.97,SE,128,0.0,7.0,97,0.00,,,0.00,Weather View 32 v70,2013-01-30 08:55:00,
2013-01-30 01:00:00,44.1,43.3,29.97,ESE,117,0.0,7.0,97,0.00,,,0.00,Weather View 32 v70,2013-01-30 09:00:00,
2013-01-30 01:09:00,44.1,43.3,29.97,SE,128,0.0,7.0,97,0.00,,,0.00,Weather View 32 v70,2013-01-30 09:09:00,
2013-01-30 01:14:00,44.1,43.3,29.97,SE,128,3.0,7.0,97,0.00,,,0.00,Weather View 32 v70,2013-01-30 09:14:00,
2013-01-30 01:20:00,44.1,43.3,29.97,WSW,245,4.0,7.0,97,0.00,,,0.00,Weather View 32 v70,2013-01-30 09:20:00,
2013-01-30 01:25:00,44.2,43.4,29.97,WSW,245,0.0,7.0,97,0.00,,,0.00,Weather View 32 v70,2013-01-30 09:25:00,
2013-01-30 01:34:00,44.2,43.4,29.97,SE,143,0.0,7.0,97,0.00,,,0.00,Weather View 32 v70,2013-01-30 09:34:00,
2013-01-30 01:39:00,44.2,43.4,29.97,SE,144,0.0,7.0,97,0.00,,,0.00,Weather View 32 v70,2013-01-30 09:39:00,
2013-01-30 01:49:00,44.2,43.4,29.97,SSE,151,0.0,7.0,97,0.00,,,0.00,Weather View 32 v70,2013-01-30 09:49:00,
2013-01-30 01:54:00,44.2,43.4,29.97,SSW,209,0.0,6.0,97,0.00,,,0.00,Weather View 32 v70,2013-01-30 09:54:00,
2013-01-30 02:00:00,44.2,43.4,29.97,SE,143,0.0,6.0,97,0.00,,,0.00,Weather View 32 v70,2013-01-30 10:00:00,
2013-01-30 02:05:00,44.2,43.4,29.97,SSE,164,3.0,6.0,97,0.00,,,0.00,Weather View 32 v70,2013-01-30 10:05:00,
2013-01-30 02:10:00,44.4,43.6,29.97,SSW,210,0.0,6.0,97,0.00,,,0.00,Weather View 32 v70,2013-01-30 10:10:00,
2013-01-30 02:19:00,44.4,43.6,29.97,SSW,200,4.0,6.0,97,0.00,,,0.00,Weather View 32 v70,2013-01-30 10:19:00,
2013-01-30 02:24:00,44.4,43.6,29.97,SSW,198,0.0,6.0,97,0.00,,,0.00,Weather View 32 v70,2013-01-30 10:24:00,
2013-01-30 02:30:00,44.4,43.6,29.97,SW,220,4.0,6.0,97,0.00,,,0.00,Weather View 32 v70,2013-01-30 10:30:00,
2013-01-30 02:35:00,44.6,43.5,29.97,SSE,158,4.0,6.0,96,0.00,,,0.00,Weather View 32 v70,2013-01-30 10:35:00,
2013-01-30 02:41:00,44.6,43.5,29.97,SW,217,0.0,6.0,96,0.00,,,0.00,Weather View 32 v70,2013-01-30 10:41:00,
2013-01-30 02:50:00,44.6,43.5,29.97,South,179,0.0,6.0,96,0.00,,,0.00,Weather View 32 v70,2013-01-30 10:50:00,
2013-01-30 02:59:00,44.6,43.5,29.97,SSW,193,3.0,6.0,96,0.00,,,0.00,Weather View 32 v70,2013-01-30 10:59:00,
2013-01-30 03:04:00,44.6,43.5,29.97,SE,126,0.0,6.0,96,0.00,,,0.00,Weather View 32 v70,2013-01-30 11:04:00,
2013-01-30 03:09:00,44.6,43.5,29.97,South,189,0.0,6.0,96,0.00,,,0.00,Weather View 32 v70,2013-01-30 11:09:00,
2013-01-30 03:15:00,44.6,43.5,29.97,South,189,0.0,6.0,96,0.00,,,0.00,Weather View 32 v70,2013-01-30 11:15:00,
2013-01-30 03:20:00,44.6,43.5,29.97,South,176,0.0,6.0,96,0.00,,,0.00,Weather View 32 v70,2013-01-30 11:20:00,
2013-01-30 03:29:00,44.6,43.5,29.97,SE,143,0.0,6.0,96,0.00,,,0.00,Weather View 32 v70,2013-01-30 11:29:00,
2013-01-30 03:34:00,44.6,43.5,29.97,SW,236,0.0,6.0,96,0.00,,,0.00,Weather View 32 v70,2013-01-30 11:34:00,
2013-01-30 03:40:00,44.8,43.7,29.97,ESE,114,0.0,6.0,96,0.00,,,0.00,Weather View 32 v70,2013-01-30 11:40:00,
2013-01-30 03:49:00,44.8,43.7,29.97,ESE,115,0.0,5.0,96,0.00,,,0.00,Weather View 32 v70,2013-01-30 11:49:00,
2013-01-30 03:54:00,44.8,43.7,29.97,ESE,115,0.0,5.0,96,0.00,,,0.00,Weather View 32 v70,2013-01-30 11:54:00,
2013-01-30 04:00:00,44.8,43.7,29.97,SSW,198,3.0,5.0,96,0.00,,,0.00,Weather View 32 v70,2013-01-30 12:00:00,
2013-01-30 04:05:00,44.8,43.7,29.97,SSW,195,0.0,5.0,96,0.00,,,0.00,Weather View 32 v70,2013-01-30 12:05:00,
2013-01-30 04:14:00,44.8,44.0,29.97,South,189,0.0,5.0,97,0.00,,,0.00,Weather View 32 v70,2013-01-30 12:14:00,
2013-01-30 04:19:00,45.0,44.2,29.97,SSW,192,4.0,5.0,97,0.00,,,0.00,Weather View 32 v70,2013-01-30 12:19:00,
2013-01-30 04:25:00,45.0,44.2,30.00,South,176,6.0,6.0,97,0.00,,,0.00,Weather View 32 v70,2013-01-30 12:25:00,
2013-01-30 04:30:00,45.0,44.2,30.00,ESE,122,0.0,6.0,97,0.00,,,0.00,Weather View 32 v70,2013-01-30 12:30:00,
2013-01-30 04:39:00,45.0,44.2,29.97,SE,125,0.0,6.0,97,0.00,,,0.00,Weather View 32 v70,2013-01-30 12:39:00,
2013-01-30 04:45:00,45.0,44.2,29.97,SSE,162,3.0,6.0,97,0.00,,,0.00,Weather View 32 v70,2013-01-30 12:45:00,
2013-01-30 04:54:00,45.1,44.3,29.97,SSW,192,0.0,8.0,97,0.00,,,0.00,Weather View 32 v70,2013-01-30 12:54:00,
2013-01-30 04:59:00,45.1,44.3,29.97,East,98,0.0,8.0,97,0.00,,,0.00,Weather View 32 v70,2013-01-30 12:59:00,
2013-01-30 05:04:00,45.1,44.3,29.97,SSE,151,0.0,8.0,97,0.00,,,0.00,Weather View 32 v70,2013-01-30 13:04:00,
2013-01-30 05:10:00,45.1,44.3,30.00,South,175,0.0,8.0,97,0.00,,,0.00,Weather View 32 v70,2013-01-30 13:10:00,
2013-01-30 05:15:00,45.1,44.3,30.00,South,181,0.0,8.0,97,0.00,,,0.00,Weather View 32 v70,2013-01-30 13:15:00,
2013-01-30 05:24:00,45.1,44.3,29.97,ESE,120,0.0,8.0,97,0.00,,,0.00,Weather View 32 v70,2013-01-30 13:24:00,
2013-01-30 05:29:00,45.1,44.3,29.97,SE,126,0.0,8.0,97,0.00,,,0.00,Weather View 32 v70,2013-01-30 13:29:00,
2013-01-30 05:35:00,45.1,44.3,29.97,South,183,3.0,8.0,97,0.00,,,0.00,Weather View 32 v70,2013-01-30 13:35:00,
2013-01-30 05:40:00,45.3,44.5,29.97,SE,131,0.0,8.0,97,0.00,,,0.00,Weather View 32 v70,2013-01-30 13:40:00,
2013-01-30 05:49:00,45.3,44.5,29.97,SW,224,3.0,6.0,97,0.00,,,0.00,Weather View 32 v70,2013-01-30 13:49:00,
2013-01-30 05:55:00,45.3,44.5,29.97,SSE,160,0.0,6.0,97,0.00,,,0.00,Weather View 32 v70,2013-01-30 13:55:00,
2013-01-30 06:00:00,45.3,44.5,29.97,SE,138,0.0,6.0,97,0.00,,,0.00,Weather View 32 v70,2013-01-30 14:00:00,
2013-01-30 06:09:00,45.3,44.5,29.97,ESE,119,0.0,6.0,97,0.00,,,0.00,Weather View 32 v70,2013-01-30 14:09:00,
2013-01-30 06:14:00,45.3,44.5,29.97,SSW,202,0.0,6.0,97,0.00,,,0.00,Weather View 32 v70,2013-01-30 14:14:00,
2013-01-30 06:20:00,45.3,44.5,29.97,SSE,162,4.0,6.0,97,0.00,,,0.00,Weather View 32 v70,2013-01-30 14:20:00,
2013-01-30 06:25:00,45.3,44.5,29.97,SSW,197,2.0,6.0,97,0.00,,,0.00,Weather View 32 v70,2013-01-30 14:25:00,
2013-01-30 06:34:00,45.3,44.5,29.97,South,188,4.0,6.0,97,0.00,,,0.00,Weather View 32 v70,2013-01-30 14:34:00,
2013-01-30 06:39:00,45.5,44.7,29.97,WSW,237,0.0,6.0,97,0.00,,,0.00,Weather View 32 v70,2013-01-30 14:39:00,
2013-01-30 06:49:00,45.5,44.7,29.97,SSE,154,2.0,6.0,97,0.00,,,0.00,Weather View 32 v70,2013-01-30 14:49:00,
2013-01-30 06:54:00,45.5,44.7,29.97,SSW,192,0.0,6.0,97,0.00,,,0.00,Weather View 32 v70,2013-01-30 14:54:00,
2013-01-30 06:59:00,45.5,44.7,29.97,South,182,6.0,6.0,97,0.00,,,0.00,Weather View 32 v70,2013-01-30 14:59:00,
2013-01-30 07:05:00,45.5,44.7,29.97,South,182,0.0,6.0,97,0.00,,,0.00,Weather View 32 v70,2013-01-30 15:05:00,
2013-01-30 07:14:00,45.5,44.7,29.97,SSE,158,0.0,6.0,97,0.00,,,0.00,Weather View 32 v70,2013-01-30 15:14:00,
2013-01-30 07:19:00,45.5,44.7,29.97,South,174,0.0,6.0,97,0.00,,,0.00,Weather View 32 v70,2013-01-30 15:19:00,
2013-01-30 07:24:00,45.5,44.7,30.00,South,170,0.0,6.0,97,0.00,,,0.00,Weather View 32 v70,2013-01-30 15:24:00,
2013-01-30 07:30:00,45.5,44.7,30.00,South,170,0.0,6.0,97,0.00,,,0.00,Weather View 32 v70,2013-01-30 15:30:00,
2013-01-30 07:35:00,45.5,44.7,30.00,South,191,0.0,6.0,97,0.00,,,0.00,Weather View 32 v70,2013-01-30 15:35:00,
2013-01-30 07:44:00,45.7,44.9,30.00,South,191,0.0,6.0,97,0.00,,,0.00,Weather View 32 v70,2013-01-30 15:44:00,
2013-01-30 07:50:00,45.7,44.9,30.00,SSW,199,0.0,6.0,97,0.00,,,0.00,Weather View 32 v70,2013-01-30 15:50:00,
2013-01-30 07:55:00,45.7,44.9,30.00,SSW,203,0.0,6.0,97,0.00,,,0.00,Weather View 32 v70,2013-01-30 15:55:00,
2013-01-30 08:04:00,45.7,44.9,30.00,SE,139,0.0,6.0,97,0.00,,,0.00,Weather View 32 v70,2013-01-30 16:04:00,
2013-01-30 08:09:00,45.9,45.1,29.97,South,181,0.0,6.0,97,0.00,,,0.00,Weather View 32 v70,2013-01-30 16:09:00,
2013-01-30 08:15:00,45.9,45.1,29.97,South,181,0.0,6.0,97,0.00,,,0.00,Weather View 32 v70,2013-01-30 16:15:00,
2013-01-30 08:20:00,45.9,45.1,29.97,South,181,0.0,6.0,97,0.00,,,0.00,Weather View 32 v70,2013-01-30 16:20:00,
2013-01-30 08:29:00,45.9,45.1,30.00,South,181,0.0,6.0,97,0.00,,,0.00,Weather View 32 v70,2013-01-30 16:29:00,
2013-01-30 08:34:00,45.9,45.1,30.00,South,181,0.0,6.0,97,0.00,,,0.00,Weather View 32 v70,2013-01-30 16:34:00,
2013-01-30 08:40:00,45.9,45.1,30.00,South,169,0.0,6.0,97,0.00,,,0.00,Weather View 32 v70,2013-01-30 16:40:00,
2013-01-30 08:50:00,46.0,45.2,30.00,SSW,211,0.0,6.0,97,0.00,,,0.00,Weather View 32 v70,2013-01-30 16:50:00,
2013-01-30 08:59:00,46.0,45.2,30.00,SE,138,0.0,6.0,97,0.00,,,0.00,Weather View 32 v70,2013-01-30 16:59:00,
2013-01-30 09:04:00,46.2,45.4,30.00,South,188,3.0,6.0,97,0.00,,,0.00,Weather View 32 v70,2013-01-30 17:04:00,
2013-01-30 09:09:00,46.0,45.2,30.00,SE,129,0.0,6.0,97,0.00,,,0.00,Weather View 32 v70,2013-01-30 17:09:00,
2013-01-30 09:15:00,46.2,45.4,30.00,SE,129,0.0,6.0,97,0.00,,,0.00,Weather View 32 v70,2013-01-30 17:15:00,
2013-01-30 09:20:00,46.2,45.4,30.00,South,179,0.0,6.0,97,0.00,,,0.00,Weather View 32 v70,2013-01-30 17:20:00,
2013-01-30 09:29:00,46.2,45.4,30.00,South,181,0.0,6.0,97,0.00,,,0.00,Weather View 32 v70,2013-01-30 17:29:00,
2013-01-30 09:34:00,46.2,45.4,30.00,South,181,0.0,6.0,97,0.00,,,0.00,Weather View 32 v70,2013-01-30 17:34:00,
2013-01-30 09:39:00,46.4,45.3,30.00,SE,140,0.0,6.0,96,0.00,,,0.00,Weather View 32 v70,2013-01-30 17:39:00,
2013-01-30 09:45:00,46.4,45.3,30.00,SE,127,0.0,6.0,96,0.00,,,0.00,Weather View 32 v70,2013-01-30 17:45:00,
2013-01-30 09:54:00,46.4,45.3,30.00,SE,124,0.0,6.0,96,0.00,,,0.00,Weather View 32 v70,2013-01-30 17:54:00,
2013-01-30 09:59:00,46.6,45.5,30.00,South,186,0.0,6.0,96,0.00,,,0.00,Weather View 32 v70,2013-01-30 17:59:00,
2013-01-30 10:05:00,46.6,45.8,30.00,South,187,0.0,6.0,97,0.00,,,0.00,Weather View 32 v70,2013-01-30 18:05:00,
2013-01-30 10:10:00,46.6,45.8,30.03,ESE,119,0.0,6.0,97,0.00,,,0.00,Weather View 32 v70,2013-01-30 18:10:00,
2013-01-30 10:19:00,46.8,46.0,30.03,SSW,203,0.0,6.0,97,0.00,,,0.00,Weather View 32 v70,2013-01-30 18:19:00,
2013-01-30 10:24:00,46.8,46.0,30.03,South,180,3.0,6.0,97,0.00,,,0.00,Weather View 32 v70,2013-01-30 18:24:00,
2013-01-30 10:30:00,46.8,46.0,30.03,SSW,194,0.0,6.0,97,0.00,,,0.00,Weather View 32 v70,2013-01-30 18:30:00,
2013-01-30 10:35:00,46.8,46.0,30.03,South,176,0.0,6.0,97,0.00,,,0.00,Weather View 32 v70,2013-01-30 18:35:00,
2013-01-30 10:44:00,47.1,46.3,30.03,South,175,0.0,6.0,97,0.00,,,0.00,Weather View 32 v70,2013-01-30 18:44:00,
2013-01-30 10:50:00,47.1,46.3,30.03,SSW,204,0.0,6.0,97,0.00,,,0.00,Weather View 32 v70,2013-01-30 18:50:00,
2013-01-30 10:55:00,47.3,46.5,30.03,SW,222,6.0,6.0,97,0.00,,,0.00,Weather View 32 v70,2013-01-30 18:55:00,
2013-01-30 11:04:00,47.3,46.5,30.03,South,183,4.0,6.0,97,0.00,,,0.00,Weather View 32 v70,2013-01-30 19:04:00,
2013-01-30 11:09:00,47.5,46.7,30.03,South,191,2.0,6.0,97,0.00,,,0.00,Weather View 32 v70,2013-01-30 19:09:00,
2013-01-30 11:14:00,47.5,46.7,30.03,South,191,4.0,6.0,97,0.00,,,0.00,Weather View 32 v70,2013-01-30 19:14:00,
2013-01-30 11:20:00,47.5,46.7,30.03,SW,214,3.0,6.0,97,0.00,,,0.00,Weather View 32 v70,2013-01-30 19:20:00,
2013-01-30 11:29:00,47.5,46.7,30.03,SSW,202,0.0,7.0,97,0.00,,,0.00,Weather View 32 v70,2013-01-30 19:29:00,
2013-01-30 11:34:00,47.7,46.8,30.03,South,185,0.0,7.0,97,0.00,,,0.00,Weather View 32 v70,2013-01-30 19:34:00,
2013-01-30 11:39:00,47.7,46.8,30.03,SE,131,0.0,7.0,97,0.00,,,0.00,Weather View 32 v70,2013-01-30 19:39:00,
2013-01-30 11:45:00,47.7,46.8,30.03,SSE,156,0.0,7.0,97,0.00,,,0.00,Weather View 32 v70,2013-01-30 19:45:00,
2013-01-30 11:54:00,47.7,46.8,30.03,SSW,192,0.0,7.0,97,0.00,,,0.00,Weather View 32 v70,2013-01-30 19:54:00,
2013-01-30 11:59:00,47.8,47.0,30.03,South,189,0.0,7.0,97,0.00,,,0.00,Weather View 32 v70,2013-01-30 19:59:00,
2013-01-30 12:05:00,47.8,47.0,30.03,SE,135,4.0,7.0,97,0.00,,,0.00,Weather View 32 v70,2013-01-30 20:05:00,
2013-01-30 12:10:00,47.8,47.0,30.03,SW,217,0.0,7.0,97,0.00,,,0.00,Weather View 32 v70,2013-01-30 20:10:00,
2013-01-30 12:19:00,47.8,47.0,30.03,SE,135,0.0,7.0,97,0.00,,,0.00,Weather View 32 v70,2013-01-30 20:19:00,
2013-01-30 12:24:00,47.8,47.0,30.03,SE,135,0.0,6.0,97,0.00,,,0.00,Weather View 32 v70,2013-01-30 20:24:00,
2013-01-30 12:29:00,47.8,47.0,30.03,SSW,204,0.0,6.0,97,0.00,,,0.00,Weather View 32 v70,2013-01-30 20:29:00,
2013-01-30 12:35:00,47.8,47.0,30.03,SSW,204,0.0,6.0,97,0.00,,,0.00,Weather View 32 v70,2013-01-30 20:35:00,
2013-01-30 12:44:00,47.8,47.0,30.03,SSW,197,0.0,5.0,97,0.00,,,0.00,Weather View 32 v70,2013-01-30 20:44:00,
2013-01-30 12:50:00,47.8,47.0,30.03,SSW,197,0.0,5.0,97,0.00,,,0.00,Weather View 32 v70,2013-01-30 20:50:00,
2013-01-30 12:55:00,47.8,47.0,30.03,SSW,197,0.0,5.0,97,0.00,,,0.00,Weather View 32 v70,2013-01-30 20:55:00,
2013-01-30 13:04:00,47.8,47.0,30.03,SSE,163,0.0,5.0,97,0.00,,,0.00,Weather View 32 v70,2013-01-30 21:04:00,
2013-01-30 13:09:00,47.8,47.0,30.03,South,182,0.0,5.0,97,0.00,,,0.00,Weather View 32 v70,2013-01-30 21:09:00,
2013-01-30 13:14:00,48.0,47.2,30.03,South,183,0.0,5.0,97,0.00,,,0.00,Weather View 32 v70,2013-01-30 21:14:00,
2013-01-30 13:20:00,48.0,47.2,30.03,South,183,0.0,5.0,97,0.00,,,0.00,Weather View 32 v70,2013-01-30 21:20:00,
2013-01-30 13:25:00,48.0,47.2,30.00,South,183,0.0,5.0,97,0.00,,,0.00,Weather View 32 v70,2013-01-30 21:25:00,
2013-01-30 13:34:00,48.0,47.2,30.00,SSW,199,0.0,4.0,97,0.00,,,0.00,Weather View 32 v70,2013-01-30 21:34:00,
2013-01-30 13:39:00,48.0,47.2,30.03,SSW,199,0.0,4.0,97,0.00,,,0.00,Weather View 32 v70,2013-01-30 21:39:00,
2013-01-30 13:44:00,48.0,47.2,30.03,SSW,199,0.0,4.0,97,0.00,,,0.00,Weather View 32 v70,2013-01-30 21:44:00,
2013-01-30 13:54:00,48.0,47.2,30.00,ESE,109,0.0,5.0,97,0.00,,,0.00,Weather View 32 v70,2013-01-30 21:54:00,
2013-01-30 13:59:00,48.0,47.2,30.00,ESE,109,0.0,5.0,97,0.00,,,0.00,Weather View 32 v70,2013-01-30 21:59:00,
2013-01-30 14:05:00,48.0,47.2,30.00,South,191,0.0,5.0,97,0.00,,,0.00,Weather View 32 v70,2013-01-30 22:05:00,
2013-01-30 14:14:00,48.0,47.2,30.03,South,191,0.0,5.0,97,0.00,,,0.00,Weather View 32 v70,2013-01-30 22:14:00,
2013-01-30 14:19:00,48.2,47.1,30.03,SSW,193,0.0,5.0,96,0.00,,,0.00,Weather View 32 v70,2013-01-30 22:19:00,
2013-01-30 14:24:00,48.2,47.1,30.00,SSW,193,0.0,5.0,96,0.00,,,0.00,Weather View 32 v70,2013-01-30 22:24:00,
2013-01-30 14:29:00,48.4,47.3,30.00,SSW,193,2.0,5.0,96,0.00,,,0.00,Weather View 32 v70,2013-01-30 22:29:00,
2013-01-30 14:35:00,48.4,47.3,30.00,ESE,116,0.0,5.0,96,0.00,,,0.00,Weather View 32 v70,2013-01-30 22:35:00,
2013-01-30 14:40:00,48.4,47.3,30.00,ESE,116,0.0,5.0,96,0.00,,,0.00,Weather View 32 v70,2013-01-30 22:40:00,
2013-01-30 14:48:00,48.4,47.3,30.00,ESE,116,0.0,5.0,96,0.00,,,0.00,Weather View 32 v70,2013-01-30 22:48:00,
2013-01-30 14:55:00,48.4,47.3,30.00,South,178,0.0,4.0,96,0.00,,,0.00,Weather View 32 v70,2013-01-30 22:55:00,
2013-01-30 15:04:00,48.4,47.3,30.00,South,184,0.0,4.0,96,0.00,,,0.00,Weather View 32 v70,2013-01-30 23:04:00,
2013-01-30 15:09:00,48.4,47.3,30.00,South,184,0.0,4.0,96,0.00,,,0.00,Weather View 32 v70,2013-01-30 23:09:00,
2013-01-30 15:14:00,48.4,47.3,30.00,SSW,204,0.0,4.0,96,0.00,,,0.00,Weather View 32 v70,2013-01-30 23:14:00,
2013-01-30 15:20:00,48.2,47.1,30.00,SSW,204,0.0,4.0,96,0.00,,,0.00,Weather View 32 v70,2013-01-30 23:20:00,
2013-01-30 15:25:00,48.2,47.1,30.00,SSW,204,3.0,4.0,96,0.00,,,0.00,Weather View 32 v70,2013-01-30 23:25:00,
2013-01-30 15:34:00,48.2,47.1,30.00,SSW,204,0.0,4.0,96,0.00,,,0.00,Weather View 32 v70,2013-01-30 23:34:00,
2013-01-30 15:39:00,48.2,47.1,30.00,SSW,204,0.0,4.0,96,0.00,,,0.00,Weather View 32 v70,2013-01-30 23:39:00,
2013-01-30 15:44:00,48.2,47.1,30.00,SSW,204,0.0,4.0,96,0.00,,,0.00,Weather View 32 v70,2013-01-30 23:44:00,
2013-01-30 15:54:00,48.0,47.2,30.00,SSW,204,0.0,4.0,97,0.00,,,0.00,Weather View 32 v70,2013-01-30 23:54:00,
2013-01-30 15:59:00,48.0,47.2,30.00,SSW,204,0.0,4.0,97,0.00,,,0.00,Weather View 32 v70,2013-01-30 23:59:00,
2013-01-30 16:05:00,48.0,47.2,30.00,SSW,204,0.0,4.0,97,0.00,,,0.00,Weather View 32 v70,2013-01-31 00:05:00,
2013-01-30 16:14:00,48.0,47.2,30.00,SSW,204,0.0,4.0,97,0.00,,,0.00,Weather View 32 v70,2013-01-31 00:14:00,
2013-01-30 16:19:00,48.0,47.2,30.00,SSW,204,0.0,4.0,97,0.00,,,0.00,Weather View 32 v70,2013-01-31 00:19:00,
2013-01-30 16:24:00,47.8,47.0,30.00,SSW,204,0.0,4.0,97,0.00,,,0.00,Weather View 32 v70,2013-01-31 00:24:00,
2013-01-30 16:29:00,47.8,47.0,30.00,SSW,204,0.0,4.0,97,0.00,,,0.00,Weather View 32 v70,2013-01-31 00:29:00,
2013-01-30 16:35:00,47.8,47.0,30.00,SSW,204,0.0,3.0,97,0.00,,,0.00,Weather View 32 v70,2013-01-31 00:35:00,
2013-01-30 16:40:00,47.8,47.0,30.00,SSW,204,0.0,3.0,97,0.00,,,0.00,Weather View 32 v70,2013-01-31 00:40:00,
2013-01-30 16:49:00,47.8,47.0,30.00,SSW,204,0.0,3.0,97,0.00,,,0.00,Weather View 32 v70,2013-01-31 00:49:00,
2013-01-30 16:55:00,47.8,47.0,30.00,SSW,204,0.0,3.0,97,0.00,,,0.00,Weather View 32 v70,2013-01-31 00:55:00,
2013-01-30 17:04:00,47.8,47.0,30.00,SSW,204,0.0,3.0,97,0.00,,,0.00,Weather View 32 v70,2013-01-31 01:04:00,
2013-01-30 17:09:00,47.7,46.8,30.00,SSW,204,0.0,3.0,97,0.00,,,0.00,Weather View 32 v70,2013-01-31 01:09:00,
2013-01-30 17:14:00,47.7,46.8,30.00,SSW,204,0.0,3.0,97,0.00,,,0.00,Weather View 32 v70,2013-01-31 01:14:00,
2013-01-30 17:20:00,47.7,46.8,30.00,SSW,204,0.0,3.0,97,0.00,,,0.00,Weather View 32 v70,2013-01-31 01:20:00,
2013-01-30 17:29:00,47.7,46.8,30.00,SSW,204,0.0,3.0,97,0.00,,,0.00,Weather View 32 v70,2013-01-31 01:29:00,
2013-01-30 17:34:00,47.7,46.8,30.00,SSW,204,0.0,3.0,97,0.00,,,0.00,Weather View 32 v70,2013-01-31 01:34:00,
2013-01-30 17:39:00,47.7,46.8,30.00,SSW,204,0.0,3.0,97,0.00,,,0.00,Weather View 32 v70,2013-01-31 01:39:00,
2013-01-30 17:45:00,47.5,46.7,30.00,SSW,204,0.0,3.0,97,0.00,,,0.00,Weather View 32 v70,2013-01-31 01:45:00,
2013-01-30 17:50:00,47.5,46.7,30.00,SSW,204,0.0,3.0,97,0.00,,,0.00,Weather View 32 v70,2013-01-31 01:50:00,
2013-01-30 18:00:00,47.5,46.7,30.00,SSW,204,0.0,3.0,97,0.00,,,0.00,Weather View 32 v70,2013-01-31 02:00:00,
2013-01-30 18:09:00,47.5,46.7,30.00,SSW,204,0.0,3.0,97,0.00,,,0.00,Weather View 32 v70,2013-01-31 02:09:00,
2013-01-30 18:14:00,47.5,46.7,30.00,SSW,204,0.0,3.0,97,0.00,,,0.00,Weather View 32 v70,2013-01-31 02:14:00,
2013-01-30 18:19:00,47.5,46.7,30.00,SSW,204,0.0,3.0,97,0.00,,,0.00,Weather View 32 v70,2013-01-31 02:19:00,
2013-01-30 18:24:00,47.5,46.7,30.00,SSW,204,0.0,3.0,97,0.00,,,0.00,Weather View 32 v70,2013-01-31 02:24:00,
2013-01-30 18:30:00,47.5,46.7,30.00,SSW,204,0.0,0.0,97,0.00,,,0.00,Weather View 32 v70,2013-01-31 02:30:00,
2013-01-30 18:35:00,47.5,46.7,30.00,SSW,204,0.0,0.0,97,0.00,,,0.00,Weather View 32 v70,2013-01-31 02:35:00,
2013-01-30 18:44:00,47.3,46.5,30.00,SSW,204,0.0,0.0,97,0.00,,,0.00,Weather View 32 v70,2013-01-31 02:44:00,
2013-01-30 18:49:00,47.5,46.7,30.00,SSW,204,0.0,0.0,97,0.00,,,0.00,Weather View 32 v70,2013-01-31 02:49:00,
2013-01-30 18:55:00,47.5,46.7,30.00,SSW,204,0.0,0.0,97,0.00,,,0.00,Weather View 32 v70,2013-01-31 02:55:00,
2013-01-30 19:04:00,47.3,46.5,30.00,SSW,204,0.0,0.0,97,0.00,,,0.00,Weather View 32 v70,2013-01-31 03:04:00,
2013-01-30 19:09:00,47.5,46.7,30.00,SSW,204,0.0,0.0,97,0.00,,,0.00,Weather View 32 v70,2013-01-31 03:09:00,
2013-01-30 19:14:00,47.5,46.7,30.00,SSW,204,0.0,0.0,97,0.00,,,0.00,Weather View 32 v70,2013-01-31 03:14:00,
2013-01-30 19:19:00,47.5,46.7,30.00,SSW,204,0.0,0.0,97,0.00,,,0.00,Weather View 32 v70,2013-01-31 03:19:00,
2013-01-30 19:25:00,47.5,46.7,29.97,SSW,204,0.0,0.0,97,0.00,,,0.00,Weather View 32 v70,2013-01-31 03:25:00,
2013-01-30 19:34:00,47.5,46.7,29.97,SSW,204,2.0,2.0,97,0.00,,,0.00,Weather View 32 v70,2013-01-31 03:34:00,
2013-01-30 19:39:00,47.5,46.7,30.00,SSW,204,0.0,2.0,97,0.00,,,0.00,Weather View 32 v70,2013-01-31 03:39:00,
2013-01-30 19:44:00,47.5,46.7,30.00,SSW,204,0.0,2.0,97,0.00,,,0.00,Weather View 32 v70,2013-01-31 03:44:00,
2013-01-30 19:49:00,47.5,46.7,30.00,SSW,204,0.0,2.0,97,0.00,,,0.00,Weather View 32 v70,2013-01-31 03:49:00,
2013-01-30 19:59:00,47.3,46.5,30.00,SSW,204,0.0,2.0,97,0.00,,,0.00,Weather View 32 v70,2013-01-31 03:59:00,
2013-01-30 20:04:00,47.3,46.5,30.00,SSW,204,0.0,2.0,97,0.00,,,0.00,Weather View 32 v70,2013-01-31 04:04:00,
2013-01-30 20:09:00,47.3,46.5,30.00,SSW,204,0.0,4.0,97,0.00,,,0.00,Weather View 32 v70,2013-01-31 04:09:00,
2013-01-30 20:14:00,47.3,46.5,30.00,SSW,204,0.0,4.0,97,0.00,,,0.00,Weather View 32 v70,2013-01-31 04:14:00,
2013-01-30 20:20:00,47.3,46.5,30.00,SSW,204,0.0,4.0,97,0.00,,,0.00,Weather View 32 v70,2013-01-31 04:20:00,
2013-01-30 20:25:00,47.3,46.5,30.00,SSW,204,0.0,4.0,97,0.00,,,0.00,Weather View 32 v70,2013-01-31 04:25:00,
2013-01-30 20:34:00,47.3,46.5,30.00,SSW,204,0.0,4.0,97,0.00,,,0.00,Weather View 32 v70,2013-01-31 04:34:00,
2013-01-30 20:39:00,47.3,46.5,30.00,SSW,204,0.0,4.0,97,0.00,,,0.00,Weather View 32 v70,2013-01-31 04:39:00,
2013-01-30 20:45:00,47.3,46.5,30.00,SSW,204,0.0,4.0,97,0.00,,,0.00,Weather View 32 v70,2013-01-31 04:45:00,
2013-01-30 20:51:00,47.3,46.5,30.00,SSW,204,0.0,4.0,97,0.00,,,0.00,Weather View 32 v70,2013-01-31 04:51:00,
2013-01-30 21:00:00,47.3,46.5,30.00,SSW,204,0.0,4.0,97,0.00,,,0.00,Weather View 32 v70,2013-01-31 05:00:00,
2013-01-30 21:05:00,47.3,46.5,30.00,SSW,204,0.0,4.0,97,0.00,,,0.00,Weather View 32 v70,2013-01-31 05:05:00,
2013-01-30 21:09:00,47.3,46.5,30.00,SSW,204,0.0,3.0,97,0.00,,,0.00,Weather View 32 v70,2013-01-31 05:09:00,
2013-01-30 21:14:00,47.3,46.5,30.00,SSW,204,0.0,3.0,97,0.00,,,0.00,Weather View 32 v70,2013-01-31 05:14:00,
2013-01-30 21:19:00,47.3,46.5,30.00,SSW,204,0.0,3.0,97,0.00,,,0.00,Weather View 32 v70,2013-01-31 05:19:00,
2013-01-30 21:24:00,47.3,46.5,30.00,SSW,204,0.0,3.0,97,0.00,,,0.00,Weather View 32 v70,2013-01-31 05:24:00,
2013-01-30 21:29:00,47.3,46.5,30.00,SSW,204,0.0,3.0,97,0.00,,,0.00,Weather View 32 v70,2013-01-31 05:29:00,
2013-01-30 21:35:00,47.3,46.5,30.00,SSW,204,0.0,0.0,97,0.00,,,0.00,Weather View 32 v70,2013-01-31 05:35:00,
2013-01-30 21:44:00,47.3,46.5,30.00,SSW,204,0.0,0.0,97,0.00,,,0.00,Weather View 32 v70,2013-01-31 05:44:00,
2013-01-30 21:49:00,47.1,46.3,30.00,SSW,204,0.0,0.0,97,0.00,,,0.00,Weather View 32 v70,2013-01-31 05:49:00,
2013-01-30 21:55:00,47.1,46.3,30.00,SSW,204,0.0,0.0,97,0.00,,,0.00,Weather View 32 v70,2013-01-31 05:55:00,
2013-01-30 22:04:00,47.1,46.3,30.00,SSW,204,0.0,0.0,97,0.00,,,0.00,Weather View 32 v70,2013-01-31 06:04:00,
2013-01-30 22:10:00,47.1,46.3,30.00,SSW,204,0.0,0.0,97,0.00,,,0.00,Weather View 32 v70,2013-01-31 06:10:00,
2013-01-30 22:14:00,47.1,46.3,30.00,SSW,204,0.0,0.0,97,0.00,,,0.00,Weather View 32 v70,2013-01-31 06:14:00,
2013-01-30 22:19:00,47.1,46.3,30.00,SSW,204,0.0,0.0,97,0.00,,,0.00,Weather View 32 v70,2013-01-31 06:19:00,
2013-01-30 22:25:00,47.1,46.3,30.00,SSW,204,0.0,0.0,97,0.00,,,0.00,Weather View 32 v70,2013-01-31 06:25:00,
2013-01-30 22:34:00,47.1,46.3,30.00,SSW,204,0.0,0.0,97,0.00,,,0.00,Weather View 32 v70,2013-01-31 06:34:00,
2013-01-30 22:40:00,47.1,46.3,30.00,SSW,204,0.0,4.0,97,0.00,,,0.00,Weather View 32 v70,2013-01-31 06:40:00,
2013-01-30 22:49:00,46.9,46.1,30.00,SSW,204,0.0,4.0,97,0.00,,,0.00,Weather View 32 v70,2013-01-31 06:49:00,
2013-01-30 22:59:00,46.9,46.1,30.00,SSW,192,0.0,5.0,97,0.00,,,0.00,Weather View 32 v70,2013-01-31 06:59:00,
2013-01-30 23:04:00,46.9,46.1,30.00,SSW,192,0.0,5.0,97,0.00,,,0.00,Weather View 32 v70,2013-01-31 07:04:00,
2013-01-30 23:09:00,46.9,46.1,30.00,SSW,192,0.0,5.0,97,0.00,,,0.00,Weather View 32 v70,2013-01-31 07:09:00,
2013-01-30 23:14:00,46.9,46.1,30.00,SSW,192,0.0,5.0,97,0.00,,,0.00,Weather View 32 v70,2013-01-31 07:14:00,
2013-01-30 23:20:00,46.9,46.1,30.00,SSW,192,0.0,5.0,97,0.00,,,0.00,Weather View 32 v70,2013-01-31 07:20:00,
2013-01-30 23:25:00,46.9,46.1,30.00,SSW,192,0.0,5.0,97,0.00,,,0.00,Weather View 32 v70,2013-01-31 07:25:00,
2013-01-30 23:34:00,46.9,46.1,30.00,SSW,210,0.0,5.0,97,0.00,,,0.00,Weather View 32 v70,2013-01-31 07:34:00,
2013-01-30 23:39:00,46.9,46.1,30.00,SSW,210,0.0,5.0,97,0.00,,,0.00,Weather View 32 v70,2013-01-31 07:39:00,
2013-01-30 23:44:00,46.9,46.1,30.00,SSW,210,0.0,5.0,97,0.00,,,0.00,Weather View 32 v70,2013-01-31 07:44:00,
2013-01-30 23:49:00,46.8,46.0,30.00,SSW,210,0.0,5.0,97,0.00,,,0.00,Weather View 32 v70,2013-01-31 07:49:00,